Wisconsin Dells, Wisconsin, United States (53965)
Lat: 43.63N, Lon: 89.77W
Wx Zone: WIZ057
Local Info
Past Weather Observations for Monday, October 27, 2014

NOTE: This archive is for the closest National Weather Service station to Wisconsin Dells. Information may differ from the station used for current weather conditions.

Click here for Long-term Archive

Time Weather Temperature Dewpoint Humidity Pressure Winds Precip Visibility
23:55
Overcast
61°F / 16°C 50°F / 10°C 68% 29.62 in
(1003 mb)
WNW 9.2 mph
(WNW 15 kph)
- 10SM
23:35
Overcast
61°F / 16°C 52°F / 11°C 72% 29.59 in
(1002 mb)
W 11.5 mph
(W 19 kph)
- 10SM
23:15
Mostly Cloudy
61°F / 16°C 54°F / 12°C 77% 29.59 in
(1002 mb)
W 6.9 mph
(W 11 kph)
- 10SM
22:55
Overcast
61°F / 16°C 54°F / 12°C 77% 29.59 in
(1002 mb)
W 8.1 mph
(W 13 kph)
- 10SM
22:35
Overcast
61°F / 16°C 54°F / 12°C 77% 29.56 in
(1001 mb)
W 6.9 mph
(W 11 kph)
- 10SM
22:15
Overcast
61°F / 16°C 54°F / 12°C 77% 29.56 in
(1001 mb)
W 9.2 mph
(W 15 kph)
- 10SM
21:55
Overcast
61°F / 16°C 55°F / 13°C 83% 29.56 in
(1001 mb)
WNW 11.5 mph
(WNW 19 kph)
- 10SM
21:35
Overcast
63°F / 17°C 55°F / 13°C 77% 29.56 in
(1001 mb)
WNW 9.2 mph
(WNW 15 kph)
- 10SM
21:15
Overcast
63°F / 17°C 57°F / 14°C 83% 29.53 in
(1000 mb)
NW 8.1 mph
(NW 13 kph)
- 10SM
20:55
Overcast
Light Rain
64°F / 18°C 57°F / 14°C 78% 29.53 in
(1000 mb)
W 4.6 mph
(W 7 kph)
- 10SM
20:35
Overcast
66°F / 19°C 55°F / 13°C 68% 29.53 in
(1000 mb)
SSW 9.2 mph
(SSW 15 kph)
- 10SM
20:15
Overcast
66°F / 19°C 55°F / 13°C 68% 29.53 in
(1000 mb)
SW 5.8 mph
(SW 9 kph)
- 10SM
19:55
Overcast
68°F / 20°C 57°F / 14°C 69% 29.53 in
(1000 mb)
SW 6.9 mph
(SW 11 kph)
- 10SM
19:35
Overcast
66°F / 19°C 57°F / 14°C 73% 29.53 in
(1000 mb)
S 6.9 mph
(S 11 kph)
- 10SM
19:15
Overcast
64°F / 18°C 57°F / 14°C 78% 29.53 in
(1000 mb)
S 3.5 mph
(S 6 kph)
- 10SM
18:55
Overcast
64°F / 18°C 55°F / 13°C 73% 29.53 in
(1000 mb)
Calm - 10SM
18:35
Overcast
64°F / 18°C 57°F / 14°C 78% 29.53 in
(1000 mb)
Calm - 10SM
18:15
Mostly Cloudy
63°F / 17°C 55°F / 13°C 77% 29.56 in
(1001 mb)
Calm - 10SM
17:55
Mostly Cloudy
64°F / 18°C 55°F / 13°C 73% 29.53 in
(1000 mb)
Calm - 10SM
17:35
Partly Cloudy
66°F / 19°C 55°F / 13°C 68% 29.53 in
(1000 mb)
SE 3.5 mph
(SE 6 kph)
- 10SM
17:15
Partly Cloudy
68°F / 20°C 55°F / 13°C 64% 29.53 in
(1000 mb)
Calm - 10SM
16:55
Overcast
70°F / 21°C 55°F / 13°C 60% 29.53 in
(1000 mb)
Calm - 10SM
16:35
Overcast
70°F / 21°C 55°F / 13°C 60% 29.53 in
(1000 mb)
Calm - 10SM
16:15
Overcast
70°F / 21°C 55°F / 13°C 60% 29.53 in
(1000 mb)
SSW 4.6 mph
(SSW 7 kph)
- 10SM
15:55
Overcast
72°F / 22°C 55°F / 13°C 57% 29.53 in
(1000 mb)
SW 5.8 mph
(SW 9 kph)
- 10SM
15:35
Overcast
72°F / 22°C 55°F / 13°C 57% 29.53 in
(1000 mb)
SW 8.1 mph
(SW 13 kph)
- 10SM
15:15
Overcast
72°F / 22°C 55°F / 13°C 57% 29.5 in
(999 mb)
S 12.7 mph
(S 20 kph)
- 10SM
14:55
Partly Cloudy
73°F / 23°C 55°F / 13°C 53% 29.5 in
(999 mb)
SW 10.4 mph
(SW 17 kph)
- 10SM
14:35
Partly Cloudy
72°F / 22°C 57°F / 14°C 61% 29.5 in
(999 mb)
SW 9.2 mph
(SW 15 kph)
- 10SM
14:15
Mostly Cloudy
72°F / 22°C 55°F / 13°C 57% 29.5 in
(999 mb)
S 9.2 mph
(S 15 kph)
- 10SM
13:55
Overcast
72°F / 22°C 55°F / 13°C 57% 29.5 in
(999 mb)
S 13.8 mph
(S 22 kph)
- 10SM
13:35
Mostly Cloudy
72°F / 22°C 57°F / 14°C 61% 29.53 in
(1000 mb)
S 11.5 mph
(S 19 kph)
- 10SM
13:15
Mostly Cloudy
72°F / 22°C 57°F / 14°C 61% 29.53 in
(1000 mb)
S 10.4 mph
(S 17 kph)
- 10SM
12:55
Mostly Cloudy
72°F / 22°C 57°F / 14°C 61% 29.53 in
(1000 mb)
S 9.2 mph
(S 15 kph)
- 10SM
12:35
Partly Cloudy
72°F / 22°C 57°F / 14°C 61% 29.53 in
(1000 mb)
SSE 10.4 mph
(SSE 17 kph)
- 10SM
12:15
Partly Cloudy
72°F / 22°C 57°F / 14°C 61% 29.53 in
(1000 mb)
S 11.5 mph
(S 19 kph)
- 10SM
11:55
Clear
72°F / 22°C 55°F / 13°C 57% 29.53 in
(1000 mb)
SW 8.1 mph
(SW 13 kph)
- 10SM
11:35
Clear
72°F / 22°C 55°F / 13°C 57% 29.56 in
(1001 mb)
SW 6.9 mph
(SW 11 kph)
- 10SM
11:15
Clear
70°F / 21°C 55°F / 13°C 60% 29.56 in
(1001 mb)
SW 6.9 mph
(SW 11 kph)
- 10SM
10:55
Clear
68°F / 20°C 54°F / 12°C 60% 29.56 in
(1001 mb)
S 6.9 mph
(S 11 kph)
- 10SM
10:35
Clear
68°F / 20°C 55°F / 13°C 64% 29.56 in
(1001 mb)
SW 9.2 mph
(SW 15 kph)
- 10SM
10:15
Clear
68°F / 20°C 54°F / 12°C 60% 29.56 in
(1001 mb)
S 9.2 mph
(S 15 kph)
- 10SM
09:55
Clear
66°F / 19°C 54°F / 12°C 64% 29.59 in
(1002 mb)
S 8.1 mph
(S 13 kph)
- 10SM
09:35
Clear
66°F / 19°C 54°F / 12°C 64% 29.59 in
(1002 mb)
SW 4.6 mph
(SW 7 kph)
- 10SM
09:15
Clear
64°F / 18°C 54°F / 12°C 68% 29.59 in
(1002 mb)
S 6.9 mph
(S 11 kph)
- 10SM
08:55
Clear
63°F / 17°C 52°F / 11°C 68% 29.59 in
(1002 mb)
S 10.4 mph
(S 17 kph)
- 10SM
08:35
Clear
63°F / 17°C 52°F / 11°C 68% 29.59 in
(1002 mb)
S 10.4 mph
(S 17 kph)
- 10SM
08:15
Clear
61°F / 16°C 50°F / 10°C 68% 29.59 in
(1002 mb)
S 11.5 mph
(S 19 kph)
- 10SM
07:55
Clear
59°F / 15°C 48°F / 9°C 68% 29.59 in
(1002 mb)
S 6.9 mph
(S 11 kph)
- 10SM
07:35
Clear
57°F / 14°C 46°F / 8°C 67% 29.59 in
(1002 mb)
SSE 8.1 mph
(SSE 13 kph)
- 10SM
07:15
Clear
55°F / 13°C 46°F / 8°C 72% 29.62 in
(1003 mb)
SSE 5.8 mph
(SSE 9 kph)
- 10SM
06:55
Clear
54°F / 12°C 45°F / 7°C 72% 29.59 in
(1002 mb)
SSE 6.9 mph
(SSE 11 kph)
- 10SM
06:35
Clear
54°F / 12°C 43°F / 6°C 67% 29.59 in
(1002 mb)
SE 4.6 mph
(SE 7 kph)
- 10SM
06:15
Clear
54°F / 12°C 43°F / 6°C 67% 29.62 in
(1003 mb)
S 6.9 mph
(S 11 kph)
- 10SM
05:55
Clear
54°F / 12°C 41°F / 5°C 63% 29.62 in
(1003 mb)
SE 4.6 mph
(SE 7 kph)
- 10SM
05:35
Clear
54°F / 12°C 41°F / 5°C 63% 29.62 in
(1003 mb)
SSE 5.8 mph
(SSE 9 kph)
- 10SM
05:15
Clear
54°F / 12°C 41°F / 5°C 63% 29.62 in
(1003 mb)
S 8.1 mph
(S 13 kph)
- 10SM
04:55
Clear
54°F / 12°C 39°F / 4°C 58% 29.62 in
(1003 mb)
SSE 11.5 mph
(SSE 19 kph)
- 10SM
04:35
Clear
54°F / 12°C 39°F / 4°C 58% 29.62 in
(1003 mb)
SSE 9.2 mph
(SSE 15 kph)
- 10SM
04:15
Clear
54°F / 12°C 37°F / 3°C 54% 29.62 in
(1003 mb)
SSE 10.4 mph
(SSE 17 kph)
- 10SM
03:55
Clear
54°F / 12°C 37°F / 3°C 54% 29.62 in
(1003 mb)
S 8.1 mph
(S 13 kph)
- 10SM
03:35
Clear
54°F / 12°C 37°F / 3°C 54% 29.62 in
(1003 mb)
SSE 10.4 mph
(SSE 17 kph)
- 10SM
03:15
Clear
54°F / 12°C 36°F / 2°C 51% 29.65 in
(1004 mb)
SSE 9.2 mph
(SSE 15 kph)
- 10SM
02:55
Clear
54°F / 12°C 36°F / 2°C 51% 29.65 in
(1004 mb)
SSE 11.5 mph
(SSE 19 kph)
- 10SM
02:35
Partly Cloudy
54°F / 12°C 34°F / 1°C 47% 29.65 in
(1004 mb)
SSE 10.4 mph
(SSE 17 kph)
- 10SM
02:15
Mostly Cloudy
55°F / 13°C 34°F / 1°C 44% 29.68 in
(1005 mb)
S 10.4 mph
(S 17 kph)
- 10SM
01:55
Clear
54°F / 12°C 32°F / 0°C 44% 29.68 in
(1005 mb)
SSE 10.4 mph
(SSE 17 kph)
- 10SM
01:35
Clear
55°F / 13°C 32°F / 0°C 41% 29.68 in
(1005 mb)
SSE 10.4 mph
(SSE 17 kph)
- 10SM
01:15
Partly Cloudy
54°F / 12°C 32°F / 0°C 44% 29.68 in
(1005 mb)
SE 9.2 mph
(SE 15 kph)
- 10SM
00:55
Partly Cloudy
54°F / 12°C 32°F / 0°C 44% 29.71 in
(1006 mb)
SE 9.2 mph
(SE 15 kph)
- 10SM
00:35
Partly Cloudy
55°F / 13°C 32°F / 0°C 41% 29.71 in
(1006 mb)
SSE 11.5 mph
(SSE 19 kph)
- 10SM
00:15
Partly Cloudy
55°F / 13°C 30°F / -1°C 38% 29.74 in
(1007 mb)
SSE 12.7 mph
(SSE 20 kph)
- 10SM
Time Weather Temperature Dewpoint Humidity Pressure Winds Precip Visibility


Weather for websites

WeatherForYou.com, LLC is not responsible for any damages or problems caused by this service. Current weather conditions are obtained from the closest station including government and personal stations which may have varying degrees of accuracy. Weather forecasts are derived from the NOAA NDFD. Like all things, this site belongs to Jesus Christ... He just trusts me to maintain it. If you have any questions or comments email webmaster@weatherforyou.com

Copyright © 2014, WeatherForYou.com LLC. All rights reserved.